Retour au catalogue

COSMOS 2476

GLONASS

ActifNavigationMEO
NORAD 37867·PAYLOAD·🇷🇺 Russia

Lancé Nov 4, 2011 depuis Baikonur Cosmodrome

Loading…

Prochains Passages (prochaines 24 heures)

TLE

FraisSource: CelesTrak SupGP

Époque: Sep 13, 2026, 23:59 UTC

1 37867C 11064A   26256.99979167  .00000000  00000+0  00000+0 0  2565
2 37867  65.3256  69.8755 0022767 230.4778  28.4846  2.13103847    17

Suivez COSMOS 2476 en temps réel avec AllMySat

Download on the App Store